N0JVW-13 Weather Reports


time (UTC)temp
C
wind
direction
speed
KPH
gust
KPH
rain 1hr
cm
rain 24hr
cm
rain mn
cm
humidity
%
barometer
mb
20260903035537 28 153 0.0 0.0 0.00 0.00 0.00 61 1010.6
20260903035012 28 153 0.0 0.0 0.00 0.00 0.00 60 1010.6
20260903034559 28 153 0.0 0.0 0.00 0.00 0.00 60 1010.6
20260903034036 28 153 0.0 0.0 0.00 0.00 0.00 60 1010.6
20260903033514 28 153 0.0 0.0 0.00 0.00 0.00 60 1010.6
20260903033058 28 153 0.0 0.0 0.00 0.00 0.00 60 1010.6
20260903032537 28 153 0.0 0.0 0.00 0.00 0.00 59 1010.6
20260903032017 29 153 0.0 0.0 0.00 0.00 0.00 59 1010.6
20260903031602 29 153 0.0 0.0 0.00 0.00 0.00 59 1010.5
20260903031043 29 153 0.0 0.0 0.00 0.00 0.00 59 1010.5
20260903030520 29 153 0.0 0.0 0.00 0.00 0.00 59 1010.6
20260903030106 29 153 0.0 0.0 0.00 0.00 0.00 59 1010.6
20260903025543 29 153 0.0 0.0 0.00 0.00 0.00 59 1010.6
20260903025021 29 153 0.0 0.0 0.00 0.00 0.00 58 1010.5
20260903024502 29 153 0.0 0.0 0.00 0.00 0.00 58 1010.6
20260903024044 29 153 0.0 0.0 0.00 0.00 0.00 58 1010.5
20260903023524 29 153 0.0 0.0 0.00 0.00 0.00 57 1010.4
20260903023006 29 153 0.0 0.0 0.00 0.00 0.00 57 1010.5
20260903022550 30 153 0.0 0.0 0.00 0.00 0.00 58 1010.5
20260903022026 30 153 0.0 0.0 0.00 0.00 0.00 57 1010.4
20260903021507 30 153 0.0 0.0 0.00 0.00 0.00 57 1010.3
20260903021051 30 153 0.0 0.0 0.00 0.00 0.00 57 1010.3
20260903020530 30 153 0.0 0.0 0.00 0.00 0.00 56 1010.3
20260903020010 30 153 0.0 0.0 0.00 0.00 0.00 56 1010.2
20260903015555 30 153 0.0 0.0 0.00 0.00 0.00 56 1010.1
20260903015034 30 153 0.0 0.0 0.00 0.00 0.00 56 1010.0
20260903014512 30 153 0.0 0.0 0.00 0.00 0.00 56 1009.9
20260903014056 30 153 0.0 0.0 0.00 0.00 0.00 56 1009.8
20260903013536 30 153 0.0 0.0 0.00 0.00 0.00 57 1009.8
20260903013015 30 153 0.0 0.0 0.00 0.00 0.00 56 1009.8
20260903012559 30 153 0.0 0.0 0.00 0.00 0.00 56 1009.7
20260903012038 31 153 0.0 0.0 0.00 0.00 0.00 56 1009.7
20260903011518 31 153 0.0 0.0 0.00 0.00 0.00 55 1009.6
20260903011103 31 153 0.0 0.0 0.00 0.00 0.00 55 1009.6
20260903010540 31 153 0.0 0.0 0.00 0.00 0.00 54 1009.6
20260903010019 31 153 0.0 0.0 0.00 0.00 0.00 53 1009.6
20260903005605 32 153 0.0 0.0 0.00 0.00 0.00 53 1009.6
20260903005045 32 153 0.0 0.0 0.00 0.00 0.00 53 1009.5
20260903004521 32 153 0.0 0.0 0.00 0.00 0.00 52 1009.6
20260903004005 32 153 0.0 0.0 0.00 0.00 0.00 52 1009.5
20260903003544 32 153 0.0 0.0 0.00 0.00 0.00 52 1009.5
20260903003026 32 153 0.0 0.0 0.00 0.00 0.00 51 1009.5
20260903002502 32 153 0.0 0.0 0.00 0.00 0.00 51 1009.6
20260903002045 32 153 0.0 0.0 0.00 0.00 0.00 50 1009.6
20260903001540 33 153 0.0 0.0 0.00 0.00 0.00 50 1009.6
20260903001004 33 153 0.0 0.0 0.00 0.00 0.00 50 1009.7
20260903000547 33 153 0.0 0.0 0.00 0.00 0.00 49 1009.6
20260903000027 33 153 0.0 0.0 0.00 0.00 0.00 49 1009.6
20260902235507 33 153 0.0 1.6 0.00 0.00 0.00 49 1009.6
20260902235049 33 156 0.0 1.6 0.00 0.00 0.00 49 1009.7
20260902234532 33 120 0.0 1.6 0.00 0.00 0.00 48 1009.6
20260902234009 33 154 0.0 1.6 0.00 0.00 0.00 48 1009.7
20260902233554 33 154 0.0 0.0 0.00 0.00 0.00 48 1009.7
20260902233029 33 154 0.0 0.0 0.00 0.00 0.00 47 1009.7
20260902232508 34 154 0.0 0.0 0.00 0.00 0.00 47 1009.7
20260902232052 34 154 0.0 1.6 0.00 0.00 0.00 47 1009.7
20260902231532 34 154 0.0 1.6 0.00 0.00 0.00 46 1009.7
20260902231011 34 131 0.0 3.2 0.00 0.00 0.00 45 1009.7
20260902230558 34 131 0.0 3.2 0.00 0.00 0.00 45 1009.7
20260902230035 34 110 0.0 4.8 0.00 0.00 0.00 45 1009.7
20260902225514 34 143 0.0 4.8 0.00 0.00 0.00 45 1009.8
20260902225058 34 163 0.0 0.0 0.00 0.00 0.00 45 1009.8
20260902224545 34 153 0.0 3.2 0.00 0.00 0.00 46 1009.8
20260902224017 34 127 0.0 3.2 0.00 0.00 0.00 46 1009.7
20260902223601 34 176 0.0 3.2 0.00 0.00 0.00 44 1009.8
20260902223040 35 148 0.0 4.8 0.00 0.00 0.00 44 1009.8
20260902222521 35 160 1.6 4.8 0.00 0.00 0.00 44 1009.8
20260902222101 35 150 0.0 4.8 0.00 0.00 0.00 45 1009.7
20260902221547 35 166 0.0 6.4 0.00 0.00 0.00 44 1009.7
20260902221020 35 158 0.0 1.6 0.00 0.00 0.00 45 1009.7
20260902220604 35 97 0.0 1.6 0.00 0.00 0.00 44 1009.7
20260902220052 35 97 0.0 3.2 0.00 0.00 0.00 44 1009.8
20260902215524 35 167 0.0 3.2 0.00 0.00 0.00 44 1009.9
20260902215003 35 160 0.0 4.8 0.00 0.00 0.00 43 1009.9
20260902214545 35 114 0.0 6.4 0.00 0.00 0.00 42 1009.9
20260902214025 35 170 1.6 6.4 0.00 0.00 0.00 43 1009.9
20260902213504 35 130 1.6 6.4 0.00 0.00 0.00 42 1010.0
20260902213050 35 160 1.6 6.4 0.00 0.00 0.00 43 1010.0
20260902212527 35 119 0.0 4.8 0.00 0.00 0.00 44 1010.0
20260902212005 35 133 0.0 4.8 0.00 0.00 0.00 42 1010.2
20260902211550 35 134 0.0 4.8 0.00 0.00 0.00 43 1010.3
20260902211029 35 133 0.0 8.0 0.00 0.00 0.00 43 1010.3
20260902210508 35 160 0.0 8.0 0.00 0.00 0.00 44 1010.4
20260902210107 35 165 1.6 4.8 0.00 0.00 0.00 44 1010.3
20260902205531 35 143 0.0 3.2 0.00 0.00 0.00 45 1010.5
20260902205011 35 198 0.0 1.6 0.00 0.00 0.00 46 1010.6
20260902204553 35 163 0.0 1.6 0.00 0.00 0.00 45 1010.7
20260902204033 35 162 0.0 6.4 0.00 0.00 0.00 44 1010.7
20260902203512 35 165 0.0 6.4 0.00 0.00 0.00 44 1010.8
20260902203100 35 127 0.0 4.8 0.00 0.00 0.00 44 1010.8
20260902202536 35 138 0.0 8.0 0.00 0.00 0.00 44 1010.8
20260902202017 35 169 3.2 8.0 0.00 0.00 0.00 45 1010.8
20260902201605 35 150 0.0 4.8 0.00 0.00 0.00 45 1010.8
20260902201041 35 150 0.0 3.2 0.00 0.00 0.00 44 1010.9
20260902200520 35 139 0.0 3.2 0.00 0.00 0.00 43 1010.9
20260902200111 35 139 0.0 6.4 0.00 0.00 0.00 42 1010.9
20260902195541 36 152 1.6 8.0 0.00 0.00 0.00 42 1011.1
20260902195019 36 152 0.0 8.0 0.00 0.00 0.00 43 1011.1
20260902194603 36 124 0.0 3.2 0.00 0.00 0.00 44 1011.1
20260902194045 36 117 0.0 4.8 0.00 0.00 0.00 44 1011.3
20260902193522 36 118 0.0 4.8 0.00 0.00 0.00 44 1011.2
20260902193002 36 134 0.0 8.0 0.00 0.00 0.00 44 1011.4
20260902192545 35 205 3.2 8.0 0.00 0.00 0.00 44 1011.4
20260902192024 35 163 0.0 6.4 0.00 0.00 0.00 44 1011.5
20260902191504 35 156 0.0 6.4 0.00 0.00 0.00 44 1011.6
20260902191048 35 135 1.6 6.4 0.00 0.00 0.00 44 1011.6
20260902190528 35 124 0.0 6.4 0.00 0.00 0.00 46 1011.8
20260902190009 35 160 1.6 4.8 0.00 0.00 0.00 46 1011.8
20260902185549 35 161 0.0 6.4 0.00 0.00 0.00 46 1011.8
20260902185033 35 148 0.0 6.4 0.00 0.00 0.00 46 1011.9
20260902184510 35 150 3.2 6.4 0.00 0.00 0.00 46 1011.9
20260902184052 35 134 1.6 6.4 0.00 0.00 0.00 46 1012.0
20260902183532 35 229 0.0 4.8 0.00 0.00 0.00 48 1012.2
20260902183013 35 172 0.0 4.8 0.00 0.00 0.00 48 1012.3
20260902182554 35 214 0.0 4.8 0.00 0.00 0.00 46 1012.3
20260902182037 35 161 0.0 4.8 0.00 0.00 0.00 49 1012.4
20260902181513 35 101 0.0 1.6 0.00 0.00 0.00 49 1012.3
20260902181057 34 101 0.0 1.6 0.00 0.00 0.00 51 1012.3
20260902180537 34 101 0.0 3.2 0.00 0.00 0.00 50 1012.5
20260902180025 34 101 0.0 4.8 0.00 0.00 0.00 49 1012.5
20260902175602 33 101 0.0 4.8 0.00 0.00 0.00 50 1012.6
20260902175040 33 207 0.0 3.2 0.00 0.00 0.00 50 1012.8
20260902174520 33 215 0.0 1.6 0.00 0.00 0.00 50 1012.7
20260902174103 33 215 0.0 1.6 0.00 0.00 0.00 51 1012.8
20260902173543 33 215 0.0 1.6 0.00 0.00 0.00 51 1012.9
20260902173032 33 215 0.0 1.6 0.00 0.00 0.00 52 1012.9
20260902172504 33 215 0.0 1.6 0.00 0.00 0.00 52 1013.0
20260902172045 33 164 0.0 1.6 0.00 0.00 0.00 53 1013.1
20260902171521 33 193 0.0 4.8 0.00 0.00 0.00 53 1013.2
20260902171104 33 193 0.0 4.8 0.00 0.00 0.00 54 1013.2
20260902170545 33 134 0.0 4.8 0.00 0.00 0.00 55 1013.2
20260902170023 32 160 0.0 1.6 0.00 0.00 0.00 55 1013.3
20260902165504 32 148 0.0 8.0 0.00 0.00 0.00 55 1013.4
20260902165049 32 141 1.6 8.0 0.00 0.00 0.00 55 1013.4
20260902164529 32 115 0.0 4.8 0.00 0.00 0.00 56 1013.3
20260902164006 32 178 0.0 4.8 0.00 0.00 0.00 57 1013.5
20260902163552 32 207 0.0 4.8 0.00 0.00 0.00 58 1013.4
20260902163031 32 280 0.0 1.6 0.00 0.00 0.00 56 1013.5
20260902162509 32 281 0.0 4.8 0.00 0.00 0.00 58 1013.5
20260902162054 32 280 0.0 4.8 0.00 0.00 0.00 57 1013.5
20260902161537 31 280 0.0 3.2 0.00 0.00 0.00 55 1013.4
20260902161012 31 279 0.0 3.2 0.00 0.00 0.00 57 1013.5
20260902160555 31 279 0.0 3.2 0.00 0.00 0.00 57 1013.4
20260902160041 31 291 0.0 4.8 0.00 0.00 0.00 57 1013.5
20260902155515 31 291 0.0 3.2 0.00 0.00 0.00 58 1013.5
20260902155058 31 291 0.0 4.8 0.00 0.00 0.00 58 1013.5
20260902154538 31 291 0.0 4.8 0.00 0.00 0.00 58 1013.5
20260902154022 31 235 0.0 4.8 0.00 0.00 0.00 59 1013.4
20260902153600 31 161 0.0 4.8 0.00 0.00 0.00 59 1013.4
20260902153040 30 126 0.0 3.2 0.00 0.00 0.00 62 1013.4
20260902152520 30 306 0.0 3.2 0.00 0.00 0.00 62 1013.4
20260902152103 30 306 0.0 3.2 0.00 0.00 0.00 61 1013.4
20260902151542 30 92 0.0 1.6 0.00 0.00 0.00 62 1013.4
20260902151021 30 92 0.0 4.8 0.00 0.00 0.00 64 1013.4
20260902150501 29 256 0.0 1.6 0.00 0.00 0.00 64 1013.4
20260902150045 29 256 0.0 1.6 0.00 0.00 0.00 64 1013.4
20260902145524 29 278 0.0 3.2 0.00 0.00 0.00 64 1013.4
20260902145006 28 278 0.0 3.2 0.00 0.00 0.00 65 1013.5
20260902144547 28 158 0.0 1.6 0.00 0.00 0.00 66 1013.4
20260902144028 28 127 0.0 1.6 0.00 0.00 0.00 68 1013.5
20260902143506 28 212 0.0 1.6 0.00 0.00 0.00 67 1013.4
20260902143050 28 250 0.0 1.6 0.00 0.00 0.00 68 1013.5
20260902142530 27 110 0.0 1.6 0.00 0.00 0.00 70 1013.6
20260902142009 27 115 0.0 3.2 0.00 0.00 0.00 70 1013.6
20260902141600 27 115 0.0 3.2 0.00 0.00 0.00 70 1013.6
20260902141033 27 122 0.0 1.6 0.00 0.00 0.00 70 1013.6
20260902140511 26 120 0.0 1.6 0.00 0.00 0.00 71 1013.6
20260902140058 26 120 0.0 1.6 0.00 0.00 0.00 71 1013.5
20260902135534 26 148 0.0 1.6 0.00 0.00 0.00 71 1013.5
20260902135015 26 133 0.0 1.6 0.00 0.00 0.00 71 1013.5
20260902134612 26 131 0.0 1.6 0.00 0.00 0.00 71 1013.6
20260902134037 25 160 0.0 1.6 0.00 0.00 0.00 71 1013.6
20260902133521 25 106 0.0 1.6 0.00 0.00 0.00 71 1013.6
20260902133100 25 106 0.0 1.6 0.00 0.00 0.00 71 1013.5
20260902132538 25 168 0.0 3.2 0.00 0.00 0.00 70 1013.5
20260902132018 25 123 0.0 3.2 0.00 0.00 0.00 70 1013.5
20260902131602 25 167 0.0 3.2 0.00 0.00 0.00 70 1013.5
20260902131044 24 159 0.0 3.2 0.00 0.00 0.00 69 1013.5
20260902130515 24 158 0.0 1.6 0.00 0.00 0.00 69 1013.5
20260902125537 24 146 0.0 3.2 0.00 0.00 0.00 69 1013.4
20260902125018 24 160 0.0 3.2 0.00 0.00 0.00 68 1013.4
20260902124600 23 164 0.0 3.2 0.00 0.00 0.00 68 1013.4
20260902124041 23 156 0.0 1.6 0.00 0.00 0.00 68 1013.3
20260902123519 23 155 0.0 1.6 0.00 0.00 0.00 68 1013.4
20260902123103 23 131 0.0 0.0 0.00 0.00 0.00 67 1013.3
20260902122542 23 152 0.0 0.0 0.00 0.00 0.00 67 1013.2
20260902122021 23 142 0.0 0.0 0.00 0.00 0.00 66 1013.2
20260902121604 23 129 0.0 0.0 0.00 0.00 0.00 67 1013.1
20260902121043 23 128 0.0 0.0 0.00 0.00 0.00 68 1013.1
20260902120523 23 128 0.0 0.0 0.00 0.00 0.00 68 1013.0
20260902120002 23 152 0.0 0.0 0.00 0.00 0.00 68 1013.1
20260902115545 23 152 0.0 0.0 0.00 0.00 0.00 69 1013.0
20260902115025 23 159 0.0 0.0 0.00 0.00 0.00 70 1013.0
20260902114504 23 154 0.0 0.0 0.00 0.00 0.00 70 1013.0
20260902114049 23 157 0.0 0.0 0.00 0.00 0.00 71 1012.9
20260902113527 24 148 0.0 0.0 0.00 0.00 0.00 71 1012.9
20260902113013 24 148 0.0 0.0 0.00 0.00 0.00 71 1012.8
20260902112551 24 144 0.0 0.0 0.00 0.00 0.00 71 1012.8
20260902112029 24 144 0.0 0.0 0.00 0.00 0.00 71 1012.7
20260902111509 24 144 0.0 0.0 0.00 0.00 0.00 71 1012.7
20260902111052 24 144 0.0 0.0 0.00 0.00 0.00 71 1012.6
20260902110533 24 144 0.0 0.0 0.00 0.00 0.00 71 1012.7
20260902110011 24 144 0.0 0.0 0.00 0.00 0.00 71 1012.7
20260902105557 24 144 0.0 0.0 0.00 0.00 0.00 72 1012.7
20260902105035 24 144 0.0 0.0 0.00 0.00 0.00 72 1012.7
20260902104518 24 144 0.0 0.0 0.00 0.00 0.00 72 1012.6
20260902104100 24 144 0.0 0.0 0.00 0.00 0.00 72 1012.6
20260902103538 24 144 0.0 0.0 0.00 0.00 0.00 72 1012.6
20260902103015 24 144 0.0 0.0 0.00 0.00 0.00 72 1012.6
20260902102558 24 144 0.0 0.0 0.00 0.00 0.00 72 1012.5
20260902102038 24 144 0.0 0.0 0.00 0.00 0.00 72 1012.4
20260902101516 24 144 0.0 0.0 0.00 0.00 0.00 72 1012.4
20260902101058 24 144 0.0 0.0 0.00 0.00 0.00 71 1012.3
20260902100538 25 144 0.0 0.0 0.00 0.00 0.00 71 1012.3
20260902100018 25 144 0.0 0.0 0.00 0.00 0.00 71 1012.3
20260902095600 25 144 0.0 0.0 0.00 0.00 0.00 71 1012.3
20260902095040 25 144 0.0 0.0 0.00 0.00 0.00 71 1012.3
20260902094520 25 144 0.0 0.0 0.00 0.00 0.00 71 1012.3
20260902094104 25 144 0.0 0.0 0.00 0.00 0.00 71 1012.2
20260902093543 25 144 0.0 0.0 0.00 0.00 0.00 71 1012.2
20260902093022 25 144 0.0 0.0 0.00 0.00 0.00 71 1012.2
20260902092503 25 144 0.0 0.0 0.00 0.00 0.00 71 1012.2
20260902092045 25 144 0.0 0.0 0.00 0.00 0.00 71 1012.2
20260902091525 25 144 0.0 0.0 0.00 0.00 0.00 71 1012.2
20260902091004 25 144 0.0 0.0 0.00 0.00 0.00 71 1012.2
20260902090551 25 144 0.0 0.0 0.00 0.00 0.00 71 1012.2
20260902090028 25 144 0.0 0.0 0.00 0.00 0.00 71 1012.2
20260902085511 25 144 0.0 0.0 0.00 0.00 0.00 71 1012.2
20260902085051 25 144 0.0 0.0 0.00 0.00 0.00 71 1012.1
20260902084531 25 144 0.0 0.0 0.00 0.00 0.00 71 1012.1
20260902084010 25 143 0.0 0.0 0.00 0.00 0.00 70 1012.1
20260902083554 25 148 0.0 0.0 0.00 0.00 0.00 70 1012.1
20260902083035 25 133 0.0 0.0 0.00 0.00 0.00 70 1012.1
20260902082515 25 148 0.0 0.0 0.00 0.00 0.00 70 1012.1
20260902082057 25 148 0.0 0.0 0.00 0.00 0.00 70 1012.1
20260902081536 25 144 0.0 0.0 0.00 0.00 0.00 70 1011.9
20260902081017 25 136 0.0 0.0 0.00 0.00 0.00 70 1011.9
20260902080600 25 136 0.0 0.0 0.00 0.00 0.00 70 1011.9
20260902080040 25 136 0.0 0.0 0.00 0.00 0.00 70 1012.0
20260902075518 25 136 0.0 0.0 0.00 0.00 0.00 70 1011.9
20260902075103 25 136 0.0 0.0 0.00 0.00 0.00 69 1011.9
20260902074557 25 136 0.0 0.0 0.00 0.00 0.00 70 1011.9
20260902074018 25 136 0.0 0.0 0.00 0.00 0.00 70 1011.9
20260902073603 25 136 0.0 0.0 0.00 0.00 0.00 69 1011.9
20260902073041 25 136 0.0 0.0 0.00 0.00 0.00 69 1011.9
20260902072521 26 136 0.0 0.0 0.00 0.00 0.00 69 1011.9
20260902072107 26 136 0.0 0.0 0.00 0.00 0.00 69 1011.9
20260902071544 26 136 0.0 0.0 0.00 0.00 0.00 69 1011.9
20260902071023 26 136 0.0 0.0 0.00 0.00 0.00 68 1011.9
20260902070502 26 136 0.0 0.0 0.00 0.00 0.00 68 1011.9
20260902070046 26 136 0.0 0.0 0.00 0.00 0.00 68 1011.8
20260902065527 26 136 0.0 0.0 0.00 0.00 0.00 68 1011.9
20260902065005 26 136 0.0 0.0 0.00 0.00 0.00 68 1011.9
20260902064550 26 136 0.0 0.0 0.00 0.00 0.00 68 1012.0
20260902064028 26 136 0.0 0.0 0.00 0.00 0.00 68 1012.0
20260902063512 26 136 0.0 0.0 0.00 0.00 0.00 68 1012.0
20260902063112 26 136 0.0 0.0 0.00 0.00 0.00 68 1012.1
20260902062532 26 136 0.0 0.0 0.00 0.00 0.00 68 1012.1
20260902062011 26 136 0.0 0.0 0.00 0.00 0.00 68 1012.1
20260902061556 26 136 0.0 0.0 0.00 0.00 0.00 67 1012.1
20260902061035 26 136 0.0 0.0 0.00 0.00 0.00 67 1012.1
20260902060516 26 136 0.0 0.0 0.00 0.00 0.00 67 1012.0
20260902060108 26 136 0.0 0.0 0.00 0.00 0.00 67 1012.0
20260902055537 26 122 0.0 0.0 0.00 0.00 0.00 67 1012.0
20260902055017 26 122 0.0 0.0 0.00 0.00 0.00 66 1012.0
20260902054610 26 122 0.0 0.0 0.00 0.00 0.00 66 1012.0
20260902054039 26 127 0.0 0.0 0.00 0.00 0.00 66 1012.0
20260902053519 26 127 0.0 0.0 0.00 0.00 0.00 66 1012.0
20260902053104 26 127 0.0 0.0 0.00 0.00 0.00 66 1012.0
20260902052545 26 127 0.0 0.0 0.00 0.00 0.00 67 1012.0
20260902052021 26 127 0.0 0.0 0.00 0.00 0.00 66 1011.9
20260902051502 26 127 0.0 0.0 0.00 0.00 0.00 65 1011.9
20260902051044 27 127 0.0 0.0 0.00 0.00 0.00 65 1011.9
20260902050524 27 127 0.0 0.0 0.00 0.00 0.00 64 1011.8
20260902050004 27 127 0.0 0.0 0.00 0.00 0.00 64 1011.8
20260902045547 27 127 0.0 0.0 0.00 0.00 0.00 64 1011.8
20260902045026 27 127 0.0 0.0 0.00 0.00 0.00 64 1011.9
20260902044512 27 127 0.0 0.0 0.00 0.00 0.00 64 1011.8
20260902044049 27 127 0.0 0.0 0.00 0.00 0.00 63 1011.8
20260902043528 27 127 0.0 0.0 0.00 0.00 0.00 64 1011.9
20260902043007 27 127 0.0 0.0 0.00 0.00 0.00 64 1012.0
20260902042554 27 127 0.0 0.0 0.00 0.00 0.00 63 1012.0
20260902042030 27 127 0.0 0.0 0.00 0.00 0.00 63 1011.9
20260902041509 27 127 0.0 0.0 0.00 0.00 0.00 62 1011.9
20260902041054 27 127 0.0 0.0 0.00 0.00 0.00 62 1011.9
20260902040532 27 127 0.0 0.0 0.00 0.00 0.00 62 1011.9